Location: Newark
(39.5222°N, 119.8081°W)
Time: 02:10:58
(UTC+00:00)

Hubble Space Telescope - Visible Passes

Search period start: 14 December 2019 00:00
Search period end: 24 December 2019 00:00
Orbit: 536 x 540 km, 28.5° (Epoch: 12 December)

Date Brightness Start Highest point End Pass type
(mag) Time Alt. Az. Time Alt. Az. Time Alt. Az.
15 Dec 3.6 13:01:44 10° S 13:02:42 11° SSE 13:03:40 10° SSE visible
15 Dec 3.3 14:40:24 10° SW 14:43:09 17° S 14:45:54 10° SE visible
16 Dec 3.4 12:51:15 12° S 12:51:58 12° SSE 12:53:41 10° SE visible
16 Dec 3.2 14:29:39 10° SW 14:32:26 18° S 14:35:14 10° SE visible
17 Dec 3.3 12:41:30 14° SSE 12:41:30 14° SSE 12:43:22 10° SE visible
17 Dec 3.1 14:18:56 10° SW 14:21:43 18° S 14:24:31 10° SE visible
18 Dec 3.5 12:31:40 14° SSE 12:31:40 14° SSE 12:32:56 10° SE visible
18 Dec 3.1 14:08:16 10° SW 14:11:00 17° S 14:13:45 10° SE visible
19 Dec 3.7 12:21:46 12° SE 12:21:46 12° SE 12:22:23 10° SE visible
19 Dec 3.1 13:57:40 10° SW 14:00:18 16° S 14:02:56 10° SSE visible
20 Dec 3.1 13:47:11 10° SW 13:49:35 15° S 13:52:03 10° SSE visible
21 Dec 3.1 13:37:13 12° SW 13:38:51 14° S 13:41:04 10° SSE visible
22 Dec 3.1 13:27:14 12° SSW 13:28:07 13° SSW 13:29:58 10° SSE visible
23 Dec 3.3 13:17:16 11° SSW 13:17:23 11° SSW 13:18:35 10° S visible
